Hebbronville, TX

3:33 PM CDT on October 19, 2017 (GMT -0500)
Hogg County

Weather History for KHBV - February, 2013

Change the Weather History Date:

Monday, February 18, 2013

  Actual Average (KALI) Record (KALI)
Temperature  
Mean Temperature 75 °F -  
Max Temperature 86 °F 71 °F 90 °F (2017)
Min Temperature 62 °F 49 °F 33 °F (2015)
Cooling Degree Days 10    
Growing Degree Days 25 (Base 50)    
Moisture  
Dew Point 48 °F    
Average Humidity 49    
Maximum Humidity 77    
Minimum Humidity 11    
Precipitation  
Precipitation 0.00 in - - ()
Sea Level Pressure  
Sea Level Pressure 29.93 in    
Wind  
Wind Speed 13 mph (SSE)    
Max Wind Speed 23 mph    
Max Gust Speed 30 mph    
Visibility 9 miles    
Events      
Averages and records for this station are not official NWS values.
T = Trace of Precipitation, MM = Missing Value Source: NWS Daily Summary

Daily Weather History Graph

Daily Weather History Graph

Search for Another Location

Airport or City:

Trip Planner

Search our weather history database for the weather conditions in past years. The results will help you decide how hot, cold, wet, or windy it might be!

Date:

Astronomy

Feb. 18, 2013 Rise Set
Actual Time 7:09 AM CST 6:28 PM CST
Civil Twilight 6:45 AM CST 6:52 PM CST
Nautical Twilight 6:18 AM CST 7:19 PM CST
Astronomical Twilight 5:50 AM CST 7:47 PM CST
Moon 12:30 PM CST (2/18) 1:36 AM CST (2/18)
Length of Visible Light 12h 07m
Length of Day
11h 19m
First Quarter, 58% of the Moon is Illuminated
Feb 18
First Quarter
Feb 25
Full
Mar 4
Last Quarter
Mar 11
New
Mar 19
First Quarter

Hourly Weather History & Observations

Time (CST) Temp. Dew Point Humidity Pressure Visibility Wind Dir Wind Speed Gust Speed Precip Events Conditions
12:15 AM 64.8 °F 53.6 °F 67% 29.99 in 10.0 mi SSE 19.6 mph 25.3 mph N/A   Overcast
12:55 AM 64.8 °F 54.0 °F 68% 29.98 in 10.0 mi SE 16.1 mph - N/A   Overcast
1:15 AM 64.9 °F 54.1 °F 68% 29.98 in 10.0 mi SSE 15.0 mph 21.9 mph N/A   Overcast
1:35 AM 64.8 °F 54.5 °F 69% 29.97 in 10.0 mi SSE 11.5 mph 20.7 mph N/A   Overcast
1:55 AM 64.8 °F 54.7 °F 70% 29.96 in 10.0 mi SSE 15.0 mph 19.6 mph N/A   Overcast
2:15 AM 64.8 °F 54.9 °F 70% 29.95 in 10.0 mi SSE 15.0 mph 21.9 mph N/A   Overcast
2:35 AM 64.9 °F 55.2 °F 71% 29.94 in 10.0 mi SSE 16.1 mph 24.2 mph N/A   Overcast
2:55 AM 64.9 °F 55.6 °F 72% 29.93 in 10.0 mi SSE 16.1 mph 23.0 mph N/A   Overcast
3:15 AM 64.9 °F 55.9 °F 73% 29.92 in 10.0 mi SSE 17.3 mph 21.9 mph N/A   Overcast
3:35 AM 64.9 °F 56.3 °F 74% 29.91 in 10.0 mi SSE 16.1 mph 21.9 mph N/A   Overcast
3:55 AM 64.9 °F 56.7 °F 74% 29.91 in 10.0 mi SSE 16.1 mph 21.9 mph N/A   Overcast
4:15 AM 64.9 °F 56.8 °F 75% 29.90 in 10.0 mi SSE 15.0 mph 21.9 mph N/A   Overcast
4:35 AM 64.9 °F 57.2 °F 76% 29.90 in 10.0 mi SSE 15.0 mph 21.9 mph N/A   Overcast
5:15 AM 64.9 °F 57.6 °F 77% 29.89 in 10.0 mi SSE 15.0 mph 24.2 mph N/A   Overcast
5:35 AM 64.9 °F 57.7 °F 77% 29.89 in 10.0 mi SSE 12.7 mph 19.6 mph N/A   Overcast
5:55 AM 65.3 °F 57.9 °F 77% 29.89 in 10.0 mi SSE 16.1 mph 24.2 mph N/A   Overcast
6:15 AM 65.3 °F 57.9 °F 77% 29.89 in 10.0 mi SSE 13.8 mph 21.9 mph N/A   Overcast
6:55 AM 65.5 °F 57.9 °F 77% 29.91 in 10.0 mi SSE 13.8 mph 24.2 mph N/A   Overcast
7:15 AM 65.7 °F 57.7 °F 76% 29.91 in 10.0 mi SSE 15.0 mph 21.9 mph N/A   Overcast
7:35 AM 65.8 °F 57.9 °F 76% 29.91 in 10.0 mi SSE 13.8 mph 20.7 mph N/A   Overcast
7:55 AM 66.2 °F 58.1 °F 75% 29.91 in 10.0 mi SSE 13.8 mph 21.9 mph N/A   Overcast
8:15 AM 66.7 °F 58.3 °F 74% 29.92 in 10.0 mi SSE 16.1 mph 20.7 mph N/A   Overcast
8:35 AM 67.3 °F 58.3 °F 73% 29.92 in 10.0 mi South 18.4 mph 25.3 mph N/A   Mostly Cloudy
8:55 AM 68.2 °F 58.1 °F 70% 29.91 in 10.0 mi SSE 23.0 mph 29.9 mph N/A   Mostly Cloudy
9:15 AM 68.9 °F 57.9 °F 68% 29.91 in 10.0 mi South 20.7 mph 29.9 mph N/A   Scattered Clouds
9:35 AM 69.4 °F 57.6 °F 66% 29.91 in 10.0 mi South 17.3 mph 28.8 mph N/A   Clear
9:55 AM 69.6 °F 57.4 °F 65% 29.91 in 10.0 mi South 18.4 mph 27.6 mph N/A   Clear
10:15 AM 72.1 °F 57.0 °F 59% 29.92 in 7.0 mi SSE 17.3 mph 25.3 mph N/A   Scattered Clouds
10:35 AM 74.5 °F 56.1 °F 53% 29.93 in 4.0 mi South 15.0 mph 20.7 mph N/A   Haze
10:55 AM 75.0 °F 54.9 °F 49% 29.94 in 10.0 mi South 16.1 mph 20.7 mph N/A   Scattered Clouds
11:15 AM 75.6 °F 55.0 °F 49% 29.94 in 5.0 mi South 12.7 mph 17.3 mph N/A   Haze
11:35 AM 77.0 °F 54.5 °F 46% 29.93 in 5.0 mi South 11.5 mph 18.4 mph N/A   Haze
11:55 AM 77.7 °F 53.8 °F 43% 29.93 in 5.0 mi SW 10.4 mph - N/A   Haze
12:15 PM 78.3 °F 53.2 °F 42% 29.93 in 4.0 mi SSW 11.5 mph - N/A   Haze
12:35 PM 79.5 °F 52.0 °F 38% 29.92 in 5.0 mi South 6.9 mph - N/A   Haze
12:55 PM 80.1 °F 51.1 °F 36% 29.91 in 4.0 mi WSW 4.6 mph - N/A   Haze
1:15 PM 80.8 °F 49.3 °F 33% 29.91 in 5.0 mi WSW 4.6 mph - N/A   Haze
1:35 PM 81.9 °F 47.5 °F 30% 29.90 in 10.0 mi SSW 3.5 mph - N/A   Clear
2:15 PM 83.7 °F 40.8 °F 22% 29.88 in 10.0 mi WNW 10.4 mph - N/A   Clear
2:35 PM 84.0 °F 36.5 °F 18% 29.88 in 10.0 mi NNW 10.4 mph 17.3 mph N/A   Clear
2:55 PM 84.4 °F 34.5 °F 17% 29.87 in 10.0 mi North 4.6 mph 19.6 mph N/A   Clear
3:15 PM 84.6 °F 35.2 °F 17% 29.86 in 10.0 mi West 3.5 mph 16.1 mph N/A   Clear
3:35 PM 84.9 °F 31.8 °F 15% 29.86 in 10.0 mi NNW 12.7 mph 19.6 mph N/A   Clear
3:55 PM 86.0 °F 24.4 °F 11% 29.86 in 10.0 mi NW 15.0 mph 20.7 mph N/A   Clear
4:15 PM 85.6 °F 25.5 °F 11% 29.86 in 10.0 mi NNW 16.1 mph - N/A   Clear
4:35 PM 85.1 °F 27.0 °F 12% 29.86 in 10.0 mi WNW 9.2 mph 16.1 mph N/A   Clear
5:15 PM 84.7 °F 28.0 °F 13% 29.87 in 10.0 mi North 5.8 mph - N/A   Clear
5:35 PM 84.4 °F 27.7 °F 13% 29.88 in 10.0 mi North 9.2 mph - N/A   Clear
5:55 PM 83.5 °F 28.2 °F 13% 29.88 in 10.0 mi NNE 8.1 mph - N/A   Clear
6:15 PM 82.0 °F 28.6 °F 14% 29.88 in 10.0 mi North 4.6 mph - N/A   Clear
6:55 PM 77.2 °F 32.5 °F 20% 29.91 in 10.0 mi North 6.9 mph - N/A   Clear
7:15 PM 75.0 °F 34.3 °F 23% 29.92 in 10.0 mi North 8.1 mph - N/A   Clear
7:35 PM 73.9 °F 34.9 °F 24% 29.93 in 10.0 mi North 8.1 mph - N/A   Clear
8:15 PM 72.0 °F 35.8 °F 27% 29.94 in 10.0 mi North 9.2 mph - N/A   Clear
8:35 PM 71.4 °F 36.0 °F 27% 29.95 in 10.0 mi North 6.9 mph - N/A   Clear
8:55 PM 70.7 °F 36.5 °F 29% 29.96 in 10.0 mi North 5.8 mph - N/A   Clear
9:15 PM 69.4 °F 37.2 °F 31% 29.98 in 10.0 mi North 4.6 mph - N/A   Clear
9:35 PM 68.4 °F 37.8 °F 33% 30.00 in 10.0 mi ESE 6.9 mph - N/A   Clear
9:55 PM 68.9 °F 39.0 °F 34% 30.00 in 10.0 mi ESE 5.8 mph - N/A   Clear
10:15 PM 68.4 °F 44.2 °F 42% 30.01 in 10.0 mi Calm Calm - N/A   Clear
10:35 PM 66.9 °F 46.9 °F 49% 30.01 in 10.0 mi SSE 4.6 mph - N/A   Clear
10:55 PM 66.6 °F 52.7 °F 61% 30.01 in 10.0 mi SSE 4.6 mph - N/A   Clear
11:15 PM 65.7 °F 53.8 °F 65% 30.01 in 10.0 mi SSE 4.6 mph - N/A   Clear
11:35 PM 64.0 °F 53.8 °F 69% 30.00 in 10.0 mi South 3.5 mph - N/A   Clear
11:55 PM 62.4 °F 54.0 °F 74% 30.00 in 10.0 mi South 5.8 mph - N/A   Clear